SCP
-0 -0 -0 -0 -0 -0 -0 -0 -0 0 -0 -0 0 0 0 0 0 0 0 0 0 0 0 0 0 0 0 0 0 0 0 0 0 0 0 0 0 0 -0 0 0 0 0 -0
-0 -0 -0 -0 -0 -0 0 0 0 0 -0 0 0 0 0 0 0 0 0 0 0 0 0 0 0 0 0 0 0 0 0 0 0 0 0 0 0 0 0 0 0 0 0 0
-0 -0 -0 -0 -0 -0 0 0 0 0 0 0 0 0 0 0 0 0 0 0 0 0 0 0 0 0 0 0 0 0 0 0 0 0 0 0 0 0 0 0 0 0 0 0
-0 -0 -0 -0 -0 -0 0 0 0 0 0 0 0 0 0 0 0 0 0 0 0 0 0 0 0 0 0 0 0 0 0 0 0 0 0 0 0 0 0 0 0 0 0 0
-0 -0 -0 -0 -0 -0 0 0 0 0 0 0 0 0 0 0 0 0 0 0 0 0 0 0 0 0 0 0 0 0 0 0 0 0 0 0 0 0 0 0 0 0 0 0
-0 -0 -0 -0 -0 -0 0 0 0 0 0 0 0 0 0 0 0 0 0 0 0 0 0 0 0 0 0 0 0 0 0 0 0 0 0 0 0 0 0 0 0 0 0 0
-0 -0 -0 -0 -0 -0 0 0 0 0 0 0 0 0 0 0 0 0 0 0 0 0 0 0 0 0 0 0 0 0 0 0 0 0 0 0 0 0 0 0 0 0 0 0
-0 -0 -0 -0 -0 -0 0 0 0 0 0 0 0 0 0 0 0 0 0 0 0 0 0 0 0 0 0 0 0 0 0 0 0 0 0 0 0 0 0 0 0 0 0 1
-0 -0 -0 -0 -0 -0 -0 0 0 0 0 0 0 0 0 0 0 0 0 0 0 0 0 0 0 0 0 0 0 0 0 0 0 0 0 0 0 0 0 0 0 0 0 0
-0 -0 -0 -0 -0 -0 -0 0 0 -0 0 0 0 0 0 0 0 0 0 0 0 0 0 0 0 0 0 0 0 0 0 0 0 0 0 0 0 0 0 0 0 0 0 0
-0 0 -0 -0 -0 -0 0 0 0 -0 0 0 0 0 0 0 0 0 0 0 0 0 0 0 0 0 0 0 0 0 0 0 0 0 0 0 0 0 0 0 0 0 0 0
-0 0 0 0 0 0 0 -0 0 0 -0 0 0 0 0 0 0 0 0 0 0 0 0 0 0 0 0 0 0 0 0 0 0 0 0 0 0 0 0 0 0 0 0 0
-0 0 0 0 0 0 -0 -0 0 -0 0 0 0 0 0 0 0 0 0 0 0 0 0 0 0 0 0 0 0 0 0 0 0 0 0 0 0 0 0 0 0 0 0 0
-0 0 0 0 0 0 -0 -0 0 0 0 0 0 0 0 0 0 0 0 0 0 0 0 0 0 0 0 0 0 0 0 0 0 0 0 0 0 0 0 0 0 0 0 0
0 0 0 0 0 0 -0 0 0 0 0 0 0 0 0 0 0 0 0 0 0 0 0 0 0 0 0 0 0 0 0 0 0 0 0 0 0 0 0 0 0 0 0 0
0 -0 -0 -0 0 0 -0 0 0 -0 0 0 0 0 0 0 0 0 0 0 0 0 0 0 0 0 0 0 0 0 0 0 0 0 0 0 0 0 0 0 0 0 0 0
0 0 0 -0 0 0 0 0 0 0 0 0 0 0 0 0 0 0 0 0 0 0 0 0 0 0 0 0 0 0 0 0 0 0 0 0 0 0 -0 -0 -0 -0 -0 -0
0 0 0 0 0 0 0 0 0 0 0 0 0 0 0 0 0 0 0 0 0 0 0 0 0 0 0 0 0 0 0 0 0 0 0 0 0 0 0 -0 -0 0 0 -0
0 0 0 0 0 0 0 0 0 0 0 0 0 0 0 0 0 0 0 0 0 0 0 0 0 0 0 0 0 0 0 0 0 0 0 0 0 0 0 -0 -0 -0 0 0
0 0 0 0 0 0 0 0 0 0 0 0 0 0 0 0 0 0 0 0 0 0 0 0 0 0 0 0 0 0 0 0 0 0 0 0 0 0 0 -0 -0 -0 -0 0
0 0 0 0 0 0 0 0 0 0 0 0 0 0 0 0 0 0 0 0 0 0 0 0 0 0 0 0 0 0 0 0 0 0 0 0 0 -0 0 -0 -0 -0 0 -0
0 0 0 0 0 0 0 0 0 0 0 0 0 0 0 0 0 0 0 0 0 0 0 -0 0 0 0 0 0 -0 0 0 0 0 0 -0 -0 0 -0 -0 -0 -0 -0 0
0 0 0 0 0 0 0 0 0 0 0 0 0 0 0 0 0 0 0 0 0 0 0 0 0 -0 0 0 0 0 0 0 0 0 -0 -0 -0 -0 -0 -0 0 -0 -0 -0
0 0 0 0 0 0 0 0 0 0 0 0 0 0 0 0 0 0 0 0 0 0 0 0 -0 -0 0 0 0 0 0 0 0 0 -0 -0 -0 -0 -0 -0 -0 0 -0 -0
0 0 0 0 0 0 0 0 0 0 0 0 0 0 0 0 0 0 0 0 0 -0 -0 -0 -0 -0 0 0 0 0 0 0 0 0 -0 -0 -0 -0 -0 -0 -0 -0 0 -0
0 0 0 0 0 0 0 0 0 0 0 0 0 0 0 0 0 0 0 -0 -0 -0 -0 0 0 0 0 0 0 0 0 0 0 0 0 -0 -0 -0 -0 -0 -0 -0 -0 0
0 0 0 0 0 0 0 0 0 0 0 0 0 0 0 0 0 0 0 -0 0 -0 -0 -0 -0 0 0 0 0 0 0 0 0 -0 -0 -0 -0 -0 -0 -0 -0 -0 -0 -0
Wind_Speed_500mb
49 50 53 51 40 18 8 6 5 13 10 14 4 9 1 2 5 2 1 2 5 2 2 5 7 6 7 4 6 8 4 13 23 30 30 14 28 32 31 21 26 22 20 26
49 50 50 50 42 24 6 3 7 8 2 6 10 9 8 6 3 8 2 3 7 1 3 8 8 5 8 4 5 8 9 13 19 25 30 22 26 18 24 23 25 31 29 23
47 50 50 48 41 25 3 4 8 8 3 2 6 5 7 8 8 8 7 4 2 7 9 2 4 10 6 4 7 5 7 25 30 27 32 26 25 27 24 25 21 29 31 26
44 48 49 46 39 25 8 8 6 3 6 8 2 5 1 8 7 4 3 4 1 5 9 12 14 10 11 12 7 11 12 27 26 27 31 32 36 39 40 42 37 35 37 38
41 45 47 46 41 22 19 7 4 2 3 1 7 7 4 8 6 6 4 6 2 5 12 11 9 12 12 15 7 14 11 17 16 29 33 37 40 43 42 43 44 48 44 47
37 40 43 45 44 33 18 13 10 3 4 5 9 4 2 2 4 2 4 4 9 11 6 9 17 21 27 26 19 21 22 19 16 28 17 23 27 32 31 31 35 35 38 39
34 36 38 41 42 40 28 26 9 7 5 5 2 4 4 4 0 7 1 6 10 8 14 26 34 35 38 36 33 30 26 18 19 21 15 27 5 7 11 17 18 15 23 17
30 32 35 37 38 34 30 31 11 8 1 4 6 7 4 7 8 13 11 3 5 13 16 16 14 16 15 15 15 22 27 24 19 17 22 27 32 13 10 15 2 14 17 16
27 27 29 33 35 33 27 29 24 6 10 8 3 3 3 9 6 9 5 2 6 9 10 10 13 9 9 7 13 9 11 19 19 14 19 22 10 9 9 6 16 16 19 22
24 22 23 27 31 31 28 26 25 8 7 3 3 4 6 4 5 7 2 4 6 5 7 13 14 13 5 10 10 7 17 16 25 24 26 20 15 14 7 26 7 26 24 26
23 20 20 24 28 30 30 19 24 14 6 9 4 3 5 5 5 8 7 10 9 7 8 6 1 10 3 11 6 11 12 11 15 11 21 30 16 5 14 27 30 38 40 38
17 16 16 22 27 30 32 14 28 23 4 6 10 13 13 8 2 9 5 10 3 7 5 6 5 10 7 9 16 11 10 8 12 10 10 13 31 37 25 37 48 49 43 45
13 13 14 21 27 31 31 21 24 17 6 5 1 4 3 8 8 8 10 4 3 4 4 11 6 10 7 13 10 19 12 18 17 24 14 24 37 50 50 37 32 41 51 51
12 13 13 19 26 31 28 14 20 22 7 8 7 2 7 9 6 9 18 16 5 4 8 18 11 12 6 15 18 21 27 28 29 33 41 44 42 34 30 43 39 44 43 47
10 12 13 17 22 26 20 9 13 35 11 11 10 5 4 4 10 14 17 20 23 22 22 16 14 18 13 26 23 20 28 22 20 25 46 39 47 52 45 48 45 38 43 46
12 13 12 15 19 18 12 3 11 36 20 6 3 4 3 7 12 5 6 16 19 20 14 16 14 16 11 10 15 30 39 37 47 43 47 55 57 55 53 49 45 47 50 48
14 14 14 16 17 8 2 3 15 27 13 4 6 4 1 8 4 7 7 8 11 16 19 20 22 20 11 11 24 32 35 44 51 56 44 39 49 52 59 51 55 51 49 46
14 13 14 15 10 4 6 13 26 11 2 2 5 1 9 10 5 7 3 10 11 11 14 9 13 4 8 8 16 29 47 56 59 58 59 59 63 65 65 63 59 55 52 43
14 12 13 9 1 1 7 26 9 5 3 4 4 8 6 10 5 7 7 3 5 2 6 5 6 4 7 9 34 58 71 52 64 68 63 68 69 73 68 54 54 53 47 38
9 6 1 4 6 9 20 11 1 3 4 4 5 4 5 12 12 3 9 5 4 5 3 3 6 5 22 24 46 57 64 71 67 57 56 48 51 50 51 45 45 41 41 36
5 4 4 10 10 6 3 4 5 4 7 8 2 6 14 5 12 8 4 5 2 5 5 3 5 4 9 46 62 70 65 58 57 53 59 57 60 54 49 41 37 39 41 37
10 6 8 4 1 3 6 4 5 8 2 7 6 6 9 4 3 6 3 4 5 2 12 6 5 7 23 63 76 85 77 71 57 53 54 51 49 43 41 36 32 32 35 33
4 1 4 4 5 2 8 11 7 7 8 5 4 6 4 3 5 8 5 6 4 4 5 5 7 28 43 64 76 79 78 67 58 53 50 53 52 40 30 27 26 29 34 32
4 6 4 8 8 8 4 2 5 8 5 7 12 10 6 4 6 4 6 3 4 5 6 6 16 44 58 69 72 68 70 71 61 54 56 51 42 35 28 25 24 29 32 31
7 7 7 10 5 6 5 2 3 2 6 9 13 8 7 7 7 5 2 3 5 5 6 17 42 54 58 70 66 71 70 65 57 52 49 53 45 35 23 20 19 26 27 27
5 9 9 7 8 9 11 10 6 1 5 9 10 5 7 6 5 5 7 3 7 6 14 40 49 55 61 57 64 62 58 51 65 56 55 47 37 28 21 13 15 21 24 26
7 10 13 13 10 11 6 9 11 6 12 10 7 6 3 5 7 6 6 7 9 28 38 45 51 57 62 54 56 56 51 54 60 59 54 37 30 20 13 8 11 18 21 25
Wind_Direction_500mb
2 3 2 1 6 20 156 198 193 166 152 203 242 189 42 351 22 44 116 309 22 311 178 232 234 218 33 46 318 269 46 292 273 273 297 289 274 280 283 252 255 236 281 284
2 5 4 2 2 11 142 192 118 185 275 227 178 140 143 26 39 51 6 115 355 342 186 250 256 186 120 34 309 360 8 266 280 262 232 207 245 233 272 278 282 267 278 274
0 4 5 4 1 7 105 220 182 165 191 74 305 194 173 168 49 59 42 83 202 202 207 216 246 216 159 275 307 18 291 269 265 276 302 319 285 268 253 274 270 271 261 265
358 1 5 8 6 9 91 14 66 355 163 162 211 248 310 221 196 107 31 146 17 296 251 245 243 252 251 230 159 247 261 267 276 278 282 282 276 272 272 271 264 268 279 283
359 2 7 12 17 21 53 37 340 66 91 86 229 159 178 239 166 305 176 261 221 267 267 289 299 285 263 276 208 238 225 274 273 278 273 270 275 271 266 262 266 272 266 264
1 4 10 16 24 40 52 32 26 334 128 193 234 128 159 150 235 137 22 342 279 245 336 311 298 285 280 274 269 272 267 271 273 275 296 290 267 260 259 274 267 272 267 276
7 10 14 18 24 35 43 31 27 308 120 245 23 170 224 208 96 301 262 284 275 32 313 291 269 258 258 256 255 248 252 246 272 269 280 259 10 20 310 286 280 311 310 323
8 13 17 22 27 31 37 33 38 360 54 5 186 206 262 255 248 260 281 257 305 313 293 280 266 231 230 224 238 245 231 243 254 248 247 273 285 265 316 310 60 29 343 340
4 12 17 21 27 31 37 27 28 14 310 84 62 251 266 285 265 215 217 225 301 292 278 252 254 274 2 216 177 232 212 232 242 225 268 282 65 51 346 296 240 24 349 334
360 7 14 17 18 20 23 17 21 23 314 52 297 305 334 302 264 283 210 311 250 247 252 259 271 267 357 257 260 186 212 227 237 248 259 260 52 328 307 248 335 341 338 330
353 357 6 12 12 12 16 5 8 22 300 294 251 261 249 215 267 291 64 251 186 227 251 279 141 267 112 270 306 287 269 280 264 247 274 264 45 244 307 342 319 315 311 307
337 347 354 2 5 6 5 356 353 348 194 286 250 246 238 220 281 302 237 339 325 358 276 223 290 241 219 305 280 136 265 262 319 269 306 310 302 298 303 301 303 302 301 297
353 352 347 355 356 357 359 8 11 18 339 253 130 117 60 177 226 223 278 186 315 228 308 326 313 270 282 271 258 280 254 252 256 297 279 287 295 299 299 298 295 295 291 287
339 348 348 351 352 354 1 36 36 23 323 293 108 135 315 242 258 252 237 256 277 254 254 276 275 276 203 280 309 290 285 290 270 270 273 278 283 288 291 301 294 295 295 284
320 329 336 346 351 355 2 42 32 21 20 323 321 328 124 248 277 280 254 237 240 257 260 244 258 269 288 277 276 277 281 280 270 275 292 302 298 292 290 288 286 292 301 295
301 307 316 337 348 351 5 293 331 355 7 305 286 323 229 289 300 264 245 226 229 237 261 272 261 273 275 281 278 295 300 302 289 293 289 285 287 288 285 276 278 291 294 292
284 291 305 325 338 345 338 329 310 331 354 307 273 167 228 337 270 240 240 222 233 245 260 256 276 284 196 266 276 324 334 317 310 298 283 275 273 283 287 276 281 286 290 289
277 290 302 316 327 330 354 309 332 350 13 321 287 152 192 6 317 296 242 250 244 218 275 260 262 216 230 255 287 312 317 308 298 289 275 274 278 277 283 276 276 275 280 282
264 284 304 310 77 265 270 318 321 2 156 308 283 325 32 341 310 296 230 287 268 147 254 275 276 220 224 313 319 307 308 303 299 305 291 286 282 281 281 278 271 269 266 267
262 275 356 228 217 288 319 357 68 231 229 239 278 349 320 327 345 338 317 215 236 248 132 293 230 246 264 298 310 311 312 316 320 304 293 291 292 281 280 271 268 260 255 259
168 199 227 243 295 332 261 259 241 170 212 185 256 307 324 9 317 333 308 321 2 269 79 310 224 247 272 323 321 320 321 319 312 305 300 304 299 292 289 279 263 258 250 252
187 206 274 303 208 230 252 210 175 223 88 163 284 7 299 324 311 273 233 282 258 257 345 269 255 233 310 323 326 327 324 328 318 312 307 309 301 301 287 267 259 250 242 247
210 170 200 219 183 321 231 176 167 185 161 180 280 309 265 211 247 253 263 249 256 326 229 261 265 314 314 314 326 333 335 332 329 322 316 314 315 305 294 273 256 235 232 236
196 204 303 234 184 233 213 243 56 76 227 299 318 303 276 299 229 249 264 61 321 266 227 264 323 325 323 322 328 335 341 345 334 324 330 329 328 311 296 269 250 233 230 230
224 219 232 216 255 238 197 208 265 247 264 287 294 258 258 230 247 224 284 260 247 242 260 309 322 323 325 327 329 337 340 346 346 338 330 329 330 324 304 274 248 232 224 218
220 233 238 206 247 205 205 209 225 213 295 283 256 282 263 250 263 230 199 254 243 283 312 319 322 323 324 328 332 331 333 335 343 343 345 339 335 329 313 265 248 241 229 226
225 226 229 250 291 284 257 237 255 256 276 274 303 265 292 313 246 249 187 234 333 323 314 317 319 319 320 323 334 333 330 329 345 346 350 344 347 360 343 340 278 255 241 238
Wind_Speed_850mb
49 50 53 51 40 18 8 6 5 13 10 14 4 9 1 2 5 2 1 2 5 2 2 5 7 6 7 4 6 8 4 13 23 30 30 14 28 32 31 21 26 22 20 26
49 50 50 50 42 24 6 3 7 8 2 6 10 9 8 6 3 8 2 3 7 1 3 8 8 5 8 4 5 8 9 13 19 25 30 22 26 18 24 23 25 31 29 23
47 50 50 48 41 25 3 4 8 8 3 2 6 5 7 8 8 8 7 4 2 7 9 2 4 10 6 4 7 5 7 25 30 27 32 26 25 27 24 25 21 29 31 26
44 48 49 46 39 25 8 8 6 3 6 8 2 5 1 8 7 4 3 4 1 5 9 12 14 10 11 12 7 11 12 27 26 27 31 32 36 39 40 42 37 35 37 38
41 45 47 46 41 22 19 7 4 2 3 1 7 7 4 8 6 6 4 6 2 5 12 11 9 12 12 15 7 14 11 17 16 29 33 37 40 43 42 43 44 48 44 47
37 40 43 45 44 33 18 13 10 3 4 5 9 4 2 2 4 2 4 4 9 11 6 9 17 21 27 26 19 21 22 19 16 28 17 23 27 32 31 31 35 35 38 39
34 36 38 41 42 40 28 26 9 7 5 5 2 4 4 4 0 7 1 6 10 8 14 26 34 35 38 36 33 30 26 18 19 21 15 27 5 7 11 17 18 15 23 17
30 32 35 37 38 34 30 31 11 8 1 4 6 7 4 7 8 13 11 3 5 13 16 16 14 16 15 15 15 22 27 24 19 17 22 27 32 13 10 15 2 14 17 16
27 27 29 33 35 33 27 29 24 6 10 8 3 3 3 9 6 9 5 2 6 9 10 10 13 9 9 7 13 9 11 19 19 14 19 22 10 9 9 6 16 16 19 22
24 22 23 27 31 31 28 26 25 8 7 3 3 4 6 4 5 7 2 4 6 5 7 13 14 13 5 10 10 7 17 16 25 24 26 20 15 14 7 26 7 26 24 26
23 20 20 24 28 30 30 19 24 14 6 9 4 3 5 5 5 8 7 10 9 7 8 6 1 10 3 11 6 11 12 11 15 11 21 30 16 5 14 27 30 38 40 38
17 16 16 22 27 30 32 14 28 23 4 6 10 13 13 8 2 9 5 10 3 7 5 6 5 10 7 9 16 11 10 8 12 10 10 13 31 37 25 37 48 49 43 45
13 13 14 21 27 31 31 21 24 17 6 5 1 4 3 8 8 8 10 4 3 4 4 11 6 10 7 13 10 19 12 18 17 24 14 24 37 50 50 37 32 41 51 51
12 13 13 19 26 31 28 14 20 22 7 8 7 2 7 9 6 9 18 16 5 4 8 18 11 12 6 15 18 21 27 28 29 33 41 44 42 34 30 43 39 44 43 47
10 12 13 17 22 26 20 9 13 35 11 11 10 5 4 4 10 14 17 20 23 22 22 16 14 18 13 26 23 20 28 22 20 25 46 39 47 52 45 48 45 38 43 46
12 13 12 15 19 18 12 3 11 36 20 6 3 4 3 7 12 5 6 16 19 20 14 16 14 16 11 10 15 30 39 37 47 43 47 55 57 55 53 49 45 47 50 48
14 14 14 16 17 8 2 3 15 27 13 4 6 4 1 8 4 7 7 8 11 16 19 20 22 20 11 11 24 32 35 44 51 56 44 39 49 52 59 51 55 51 49 46
14 13 14 15 10 4 6 13 26 11 2 2 5 1 9 10 5 7 3 10 11 11 14 9 13 4 8 8 16 29 47 56 59 58 59 59 63 65 65 63 59 55 52 43
14 12 13 9 1 1 7 26 9 5 3 4 4 8 6 10 5 7 7 3 5 2 6 5 6 4 7 9 34 58 71 52 64 68 63 68 69 73 68 54 54 53 47 38
9 6 1 4 6 9 20 11 1 3 4 4 5 4 5 12 12 3 9 5 4 5 3 3 6 5 22 24 46 57 64 71 67 57 56 48 51 50 51 45 45 41 41 36
5 4 4 10 10 6 3 4 5 4 7 8 2 6 14 5 12 8 4 5 2 5 5 3 5 4 9 46 62 70 65 58 57 53 59 57 60 54 49 41 37 39 41 37
10 6 8 4 1 3 6 4 5 8 2 7 6 6 9 4 3 6 3 4 5 2 12 6 5 7 23 63 76 85 77 71 57 53 54 51 49 43 41 36 32 32 35 33
4 1 4 4 5 2 8 11 7 7 8 5 4 6 4 3 5 8 5 6 4 4 5 5 7 28 43 64 76 79 78 67 58 53 50 53 52 40 30 27 26 29 34 32
4 6 4 8 8 8 4 2 5 8 5 7 12 10 6 4 6 4 6 3 4 5 6 6 16 44 58 69 72 68 70 71 61 54 56 51 42 35 28 25 24 29 32 31
7 7 7 10 5 6 5 2 3 2 6 9 13 8 7 7 7 5 2 3 5 5 6 17 42 54 58 70 66 71 70 65 57 52 49 53 45 35 23 20 19 26 27 27
5 9 9 7 8 9 11 10 6 1 5 9 10 5 7 6 5 5 7 3 7 6 14 40 49 55 61 57 64 62 58 51 65 56 55 47 37 28 21 13 15 21 24 26
7 10 13 13 10 11 6 9 11 6 12 10 7 6 3 5 7 6 6 7 9 28 38 45 51 57 62 54 56 56 51 54 60 59 54 37 30 20 13 8 11 18 21 25
Wind_Direction_850mb
2 3 2 1 6 20 156 198 193 166 152 203 242 189 42 351 22 44 116 309 22 311 178 232 234 218 33 46 318 269 46 292 273 273 297 289 274 280 283 252 255 236 281 284
2 5 4 2 2 11 142 192 118 185 275 227 178 140 143 26 39 51 6 115 355 342 186 250 256 186 120 34 309 360 8 266 280 262 232 207 245 233 272 278 282 267 278 274
0 4 5 4 1 7 105 220 182 165 191 74 305 194 173 168 49 59 42 83 202 202 207 216 246 216 159 275 307 18 291 269 265 276 302 319 285 268 253 274 270 271 261 265
358 1 5 8 6 9 91 14 66 355 163 162 211 248 310 221 196 107 31 146 17 296 251 245 243 252 251 230 159 247 261 267 276 278 282 282 276 272 272 271 264 268 279 283
359 2 7 12 17 21 53 37 340 66 91 86 229 159 178 239 166 305 176 261 221 267 267 289 299 285 263 276 208 238 225 274 273 278 273 270 275 271 266 262 266 272 266 264
1 4 10 16 24 40 52 32 26 334 128 193 234 128 159 150 235 137 22 342 279 245 336 311 298 285 280 274 269 272 267 271 273 275 296 290 267 260 259 274 267 272 267 276
7 10 14 18 24 35 43 31 27 308 120 245 23 170 224 208 96 301 262 284 275 32 313 291 269 258 258 256 255 248 252 246 272 269 280 259 10 20 310 286 280 311 310 323
8 13 17 22 27 31 37 33 38 360 54 5 186 206 262 255 248 260 281 257 305 313 293 280 266 231 230 224 238 245 231 243 254 248 247 273 285 265 316 310 60 29 343 340
4 12 17 21 27 31 37 27 28 14 310 84 62 251 266 285 265 215 217 225 301 292 278 252 254 274 2 216 177 232 212 232 242 225 268 282 65 51 346 296 240 24 349 334
360 7 14 17 18 20 23 17 21 23 314 52 297 305 334 302 264 283 210 311 250 247 252 259 271 267 357 257 260 186 212 227 237 248 259 260 52 328 307 248 335 341 338 330
353 357 6 12 12 12 16 5 8 22 300 294 251 261 249 215 267 291 64 251 186 227 251 279 141 267 112 270 306 287 269 280 264 247 274 264 45 244 307 342 319 315 311 307
337 347 354 2 5 6 5 356 353 348 194 286 250 246 238 220 281 302 237 339 325 358 276 223 290 241 219 305 280 136 265 262 319 269 306 310 302 298 303 301 303 302 301 297
353 352 347 355 356 357 359 8 11 18 339 253 130 117 60 177 226 223 278 186 315 228 308 326 313 270 282 271 258 280 254 252 256 297 279 287 295 299 299 298 295 295 291 287
339 348 348 351 352 354 1 36 36 23 323 293 108 135 315 242 258 252 237 256 277 254 254 276 275 276 203 280 309 290 285 290 270 270 273 278 283 288 291 301 294 295 295 284
320 329 336 346 351 355 2 42 32 21 20 323 321 328 124 248 277 280 254 237 240 257 260 244 258 269 288 277 276 277 281 280 270 275 292 302 298 292 290 288 286 292 301 295
301 307 316 337 348 351 5 293 331 355 7 305 286 323 229 289 300 264 245 226 229 237 261 272 261 273 275 281 278 295 300 302 289 293 289 285 287 288 285 276 278 291 294 292
284 291 305 325 338 345 338 329 310 331 354 307 273 167 228 337 270 240 240 222 233 245 260 256 276 284 196 266 276 324 334 317 310 298 283 275 273 283 287 276 281 286 290 289
277 290 302 316 327 330 354 309 332 350 13 321 287 152 192 6 317 296 242 250 244 218 275 260 262 216 230 255 287 312 317 308 298 289 275 274 278 277 283 276 276 275 280 282
264 284 304 310 77 265 270 318 321 2 156 308 283 325 32 341 310 296 230 287 268 147 254 275 276 220 224 313 319 307 308 303 299 305 291 286 282 281 281 278 271 269 266 267
262 275 356 228 217 288 319 357 68 231 229 239 278 349 320 327 345 338 317 215 236 248 132 293 230 246 264 298 310 311 312 316 320 304 293 291 292 281 280 271 268 260 255 259
168 199 227 243 295 332 261 259 241 170 212 185 256 307 324 9 317 333 308 321 2 269 79 310 224 247 272 323 321 320 321 319 312 305 300 304 299 292 289 279 263 258 250 252
187 206 274 303 208 230 252 210 175 223 88 163 284 7 299 324 311 273 233 282 258 257 345 269 255 233 310 323 326 327 324 328 318 312 307 309 301 301 287 267 259 250 242 247
210 170 200 219 183 321 231 176 167 185 161 180 280 309 265 211 247 253 263 249 256 326 229 261 265 314 314 314 326 333 335 332 329 322 316 314 315 305 294 273 256 235 232 236
196 204 303 234 184 233 213 243 56 76 227 299 318 303 276 299 229 249 264 61 321 266 227 264 323 325 323 322 328 335 341 345 334 324 330 329 328 311 296 269 250 233 230 230
224 219 232 216 255 238 197 208 265 247 264 287 294 258 258 230 247 224 284 260 247 242 260 309 322 323 325 327 329 337 340 346 346 338 330 329 330 324 304 274 248 232 224 218
220 233 238 206 247 205 205 209 225 213 295 283 256 282 263 250 263 230 199 254 243 283 312 319 322 323 324 328 332 331 333 335 343 343 345 339 335 329 313 265 248 241 229 226
225 226 229 250 291 284 257 237 255 256 276 274 303 265 292 313 246 249 187 234 333 323 314 317 319 319 320 323 334 333 330 329 345 346 350 344 347 360 343 340 278 255 241 238